Location: Unspecified
(33.6682°S, 0.0000°E)
Time: 22:44:23
(UTC+00:00)

Vanguard 1 - Pass Details

Date: 04 July 2019
Orbit: 653 x 3830 km, 34.3° (Epoch: 18 July)

Event Time Altitude Azimuth Distance (km) Brightness Sun altitude
Rises 17:20:08 0° 258° (WSW) 4,050 14.2 -3.9°
Reaches altitude 10° 17:22:28 10° 264° (W) 3,357 13.9 -4.3°
Maximum altitude 17:30:54 52° 337° (NNW) 2,326 12.3 -5.9°
Drops below altitude 10° 17:46:18 10° 46° (NE) 5,889 13.8 -8.9°
Sets 17:51:59 0° 50° (NE) 7,323 14.2 -10.0°
